NORTHEAST SUFFOLK  -  Rip Current Statement Rip Current Statement        NORTHERN NASSAU  -  Rip Current Statement Rip Current Statement        NORTHERN QUEENS  -  Rip Current Statement Rip Current Statement        NORTHWEST SUFFOLK  -  Rip Current Statement Rip Current Statement        SOUTHEAST SUFFOLK  -  Rip Current Statement Rip Current Statement        SOUTHERN NASSAU  -  Rip Current Statement Rip Current Statement        SOUTHERN QUEENS  -  Rip Current Statement Rip Current Statement        SOUTHWEST SUFFOLK  -  Rip Current Statement Rip Current Statement      

Active alerts

Northern Queens
  Details for Northern Queens Rip Current Statement
Southern Queens
  Details for Southern Queens Rip Current Statement
Northern Nassau
  Details for Northern Nassau Rip Current Statement
Southern Nassau
  Details for Southern Nassau Rip Current Statement
Northwest Suffolk
  Details for Northwest Suffolk Rip Current Statement
Southwest Suffolk
  Details for Southwest Suffolk Rip Current Statement
Northeast Suffolk
  Details for Northeast Suffolk Rip Current Statement
Southeast Suffolk
  Details for Southeast Suffolk Rip Current Statement


WXM80 ListenWXM80 Stop

You find our weather info also at:

UK Metoffice

WeatherCloud

Weather Underground

Northeastern Weather Network

AWEKAS

Citizen Weather Observer Program (CWOP)

HAMweather, WeatherForYou, PWS Weather


Weather Underground History page Text

Daily Summary for April 9, 2017 Units:  Metric    English   Both
« Previous Day
Next Day »
Daily Weekly Monthly Yearly Custom
  High: Low: Average:
Temperature: 20.1 °C 2 °C 10.6 °C
Dew Point: 2.8 °C -3.7 °C -0.5 °C
Humidity: 75 % 22 % 50 %
Wind Speed: 14 km/h 0 km/h 5.5 km/h
Wind Gust: 29.6 km/h - -
Wind:- - WSW
Pressure: 1020.5 hPa 1015.5 hPa -
Precipitation: 0 mm    
Historical Graphs
 
 
Tabular Data for April 9, 2017
Time Temperature Dew Point Pressure Wind Wind Speed Wind Gust Humidity Rainfall Rate (Hourly)
00:02 7.1 °C -0.1 °C 1015.5 hPa NW 1.4 km/h 5.6 km/h 60 % 0 mm
00:07 7.1 °C -0.2 °C 1015.5 hPa NW 0.8 km/h 1.9 km/h 60 % 0 mm
00:12 6.9 °C -0.3 °C 1015.5 hPa NW 1.3 km/h 3.7 km/h 60 % 0 mm
00:17 6.9 °C -0.1 °C 1015.5 hPa NW 1.6 km/h 3.7 km/h 61 % 0 mm
00:22 6.8 °C -0.4 °C 1015.5 hPa Calm     60 % 0 mm
00:27 6.7 °C -0.3 °C 1015.5 hPa Calm     61 % 0 mm
00:32 6.6 °C -0.2 °C 1015.8 hPa Calm     62 % 0 mm
00:37 6.4 °C -0.2 °C 1015.8 hPa NW 1 km/h 3.7 km/h 63 % 0 mm
00:43 6.3 °C 0 °C 1015.8 hPa NW 2.1 km/h 3.7 km/h 64 % 0 mm
00:48 6.2 °C -0.3 °C 1015.8 hPa NW 2.3 km/h 3.7 km/h 63 % 0 mm
00:53 6.1 °C -0.4 °C 1015.8 hPa NW 0.8 km/h 3.7 km/h 63 % 0 mm
00:58 5.8 °C -0.3 °C 1015.8 hPa NW 1.8 km/h 3.7 km/h 65 % 0 mm
01:03 5.6 °C -0.3 °C 1015.8 hPa NW 3.1 km/h 5.6 km/h 66 % 0 mm
01:08 5.4 °C -0.2 °C 1015.8 hPa NW 2.1 km/h 3.7 km/h 67 % 0 mm
01:13 5.4 °C -0.3 °C 1015.8 hPa NW 3.1 km/h 5.6 km/h 67 % 0 mm
01:18 5.3 °C -0.3 °C 1015.8 hPa NW 3.2 km/h 5.6 km/h 67 % 0 mm
01:23 5.2 °C -0.4 °C 1015.8 hPa NW 1.4 km/h 3.7 km/h 67 % 0 mm
01:28 5.1 °C -0.3 °C 1015.8 hPa NW 1 km/h 3.2 km/h 68 % 0 mm
01:33 5 °C -0.6 °C 1016.1 hPa Calm     67 % 0 mm
01:38 4.9 °C -0.7 °C 1015.8 hPa NW 0.3 km/h 1.9 km/h 67 % 0 mm
01:43 4.8 °C -0.8 °C 1016.1 hPa Calm   1.9 km/h 67 % 0 mm
01:48 4.7 °C -0.7 °C 1016.1 hPa NW 0.5 km/h 1.9 km/h 68 % 0 mm
01:53 4.7 °C -0.7 °C 1016.1 hPa NW 0.8 km/h 1.9 km/h 68 % 0 mm
01:58 4.6 °C -0.8 °C 1016.1 hPa NW 0.2 km/h 1.9 km/h 68 % 0 mm
02:03 4.5 °C -0.9 °C 1016.1 hPa NW 0.2 km/h 1.6 km/h 68 % 0 mm
02:08 4.4 °C -1 °C 1016.1 hPa NW 0.5 km/h 1.9 km/h 68 % 0 mm
02:13 4.3 °C -0.9 °C 1016.1 hPa Calm     69 % 0 mm
02:18 4.2 °C -0.9 °C 1016.1 hPa Calm     69 % 0 mm
02:23 4.1 °C -1.1 °C 1016.1 hPa Calm     69 % 0 mm
02:28 3.9 °C -1.2 °C 1016.1 hPa Calm   1.9 km/h 69 % 0 mm
02:33 3.8 °C -1.2 °C 1016.1 hPa Calm     70 % 0 mm
02:38 3.6 °C -1.3 °C 1016.1 hPa Calm     70 % 0 mm
02:43 3.4 °C -1.5 °C 1016.1 hPa NW 1.3 km/h 3.7 km/h 70 % 0 mm
02:48 3.3 °C -1.5 °C 1016.1 hPa Calm   1.9 km/h 71 % 0 mm
02:53 3.2 °C -1.6 °C 1016.1 hPa NW 1.6 km/h 3.7 km/h 71 % 0 mm
02:58 3.1 °C -1.7 °C 1016.5 hPa NW 2.3 km/h 5.6 km/h 71 % 0 mm
03:03 2.9 °C -1.6 °C 1016.5 hPa NW 1.8 km/h 3.7 km/h 72 % 0 mm
03:08 2.8 °C -1.7 °C 1016.8 hPa NW 2.1 km/h 4.8 km/h 72 % 0 mm
03:13 2.8 °C -1.6 °C 1016.5 hPa NW 1.9 km/h 5.6 km/h 73 % 0 mm
03:18 2.7 °C -1.6 °C 1016.5 hPa NW 1.1 km/h 3.7 km/h 73 % 0 mm
03:23 2.6 °C -1.7 °C 1016.5 hPa NW 2.9 km/h 3.7 km/h 73 % 0 mm
03:28 2.5 °C -1.7 °C 1016.5 hPa NW 3.1 km/h 5.6 km/h 74 % 0 mm
03:33 2.4 °C -1.7 °C 1016.8 hPa NW 1.9 km/h 3.7 km/h 74 % 0 mm
03:38 2.4 °C -1.8 °C 1016.8 hPa NW 1.6 km/h 3.7 km/h 74 % 0 mm
03:43 2.3 °C -1.9 °C 1016.8 hPa NW 1 km/h 3.7 km/h 74 % 0 mm
03:48 2.2 °C -1.8 °C 1016.8 hPa NW 0.2 km/h 1.9 km/h 75 % 0 mm
03:49 2.2 °C -1.8 °C 1016.8 hPa Calm   1.9 km/h 75 % 0 mm
03:54 2.2 °C -2 °C 1016.8 hPa NW 0.2 km/h 1.9 km/h 74 % 0 mm
03:59 2.2 °C -2 °C 1016.8 hPa NW 0.6 km/h 1.9 km/h 74 % 0 mm
04:04 2.1 °C -2.1 °C 1017.2 hPa NW 1 km/h 1.9 km/h 74 % 0 mm
04:09 2.1 °C -2.1 °C 1017.2 hPa NW 0.2 km/h 1.9 km/h 74 % 0 mm
04:15 2.1 °C -2.1 °C 1017.2 hPa NW 1.1 km/h 3.7 km/h 74 % 0 mm
04:20 2.1 °C -2.1 °C 1017.2 hPa NW 0.3 km/h 1.9 km/h 74 % 0 mm
04:25 2 °C -2.3 °C 1017.2 hPa NW 0.3 km/h 1.9 km/h 73 % 0 mm
04:30 2.1 °C -2.4 °C 1017.2 hPa Calm   1.9 km/h 72 % 0 mm
04:35 2.1 °C -2.4 °C 1017.2 hPa NW 0.8 km/h 3.7 km/h 72 % 0 mm
04:40 2.1 °C -2.4 °C 1017.5 hPa NW 1.8 km/h 3.2 km/h 72 % 0 mm
04:45 2.1 °C -2.4 °C 1017.2 hPa NW 1.6 km/h 3.7 km/h 72 % 0 mm
04:50 2.1 °C -2.4 °C 1017.2 hPa NW 0.2 km/h 1.9 km/h 72 % 0 mm
04:55 2.1 °C -2.4 °C 1017.2 hPa NW 2.1 km/h 3.7 km/h 72 % 0 mm
05:00 2.1 °C -2.4 °C 1017.2 hPa NW 0.8 km/h 1.9 km/h 72 % 0 mm
05:05 2.1 °C -2.6 °C 1017.5 hPa NW 3.9 km/h 5.6 km/h 71 % 0 mm
05:10 2.2 °C -2.7 °C 1017.5 hPa WSW 2.9 km/h 5.6 km/h 70 % 0 mm
05:15 2.2 °C -2.9 °C 1017.5 hPa WSW 3.2 km/h 3.7 km/h 69 % 0 mm
05:20 2.3 °C -2.8 °C 1017.5 hPa WSW 2.3 km/h 3.7 km/h 69 % 0 mm
05:25 2.4 °C -2.7 °C 1017.5 hPa WSW 0.5 km/h 1.9 km/h 69 % 0 mm
05:30 2.6 °C -2.8 °C 1017.5 hPa WSW 1.9 km/h 3.7 km/h 68 % 0 mm
05:35 2.6 °C -2.7 °C 1017.5 hPa WSW 0.5 km/h 1.9 km/h 68 % 0 mm
05:40 2.7 °C -2.7 °C 1017.8 hPa WSW 1.9 km/h 3.7 km/h 68 % 0 mm
05:45 2.7 °C -2.8 °C 1017.8 hPa WSW 1.9 km/h 4.8 km/h 67 % 0 mm
05:50 2.7 °C -2.6 °C 1017.8 hPa WSW 1.8 km/h 5.6 km/h 68 % 0 mm
05:55 2.7 °C -2.6 °C 1018.2 hPa WSW 2.1 km/h 3.7 km/h 68 % 0 mm
06:00 2.7 °C -2.7 °C 1018.2 hPa WSW 2.9 km/h 5.6 km/h 68 % 0 mm
06:05 2.7 °C -2.7 °C 1018.2 hPa WSW 0.6 km/h 3.7 km/h 68 % 0 mm
06:11 2.6 °C -2.7 °C 1018.2 hPa WSW 0.6 km/h 3.7 km/h 68 % 0 mm
06:16 2.6 °C -2.7 °C 1018.2 hPa WSW 0.5 km/h 1.9 km/h 68 % 0 mm
06:21 2.6 °C -2.7 °C 1018.2 hPa WSW 3.1 km/h 5.6 km/h 68 % 0 mm
06:26 2.6 °C -2.7 °C 1018.5 hPa WSW 1.9 km/h 3.7 km/h 68 % 0 mm
06:31 2.6 °C -2.7 °C 1018.5 hPa WSW 2.7 km/h 3.7 km/h 68 % 0 mm
06:36 2.6 °C -2.7 °C 1018.5 hPa WSW 1.9 km/h 5.6 km/h 68 % 0 mm
06:41 2.7 °C -2.8 °C 1018.8 hPa WSW 2.7 km/h 5.6 km/h 67 % 0 mm
06:46 2.8 °C -2.7 °C 1018.8 hPa WSW 3.2 km/h 3.7 km/h 67 % 0 mm
06:51 2.9 °C -2.7 °C 1018.8 hPa WSW 3.2 km/h 5.6 km/h 67 % 0 mm
06:56 3.1 °C -2.7 °C 1019.2 hPa WSW 2.7 km/h 5.6 km/h 66 % 0 mm
07:01 3.3 °C -2.5 °C 1019.2 hPa WSW 1.6 km/h 5.6 km/h 66 % 0 mm
07:06 3.4 °C -2.3 °C 1019.2 hPa WSW 1.3 km/h 3.7 km/h 66 % 0 mm
07:11 3.7 °C -2.1 °C 1019.2 hPa WSW 5.1 km/h 8 km/h 66 % 0 mm
07:16 3.9 °C -2.1 °C 1019.2 hPa WSW 6.6 km/h 9.3 km/h 65 % 0 mm
07:21 4.1 °C -1.9 °C 1019.2 hPa WSW 4.2 km/h 5.6 km/h 65 % 0 mm
07:26 4.2 °C -1.8 °C 1019.2 hPa SW 4.5 km/h 5.6 km/h 65 % 0 mm
07:31 4.5 °C -1.7 °C 1019.2 hPa SW 3.4 km/h 5.6 km/h 64 % 0 mm
07:36 4.7 °C -1.8 °C 1019.2 hPa SW 2.6 km/h 5.6 km/h 63 % 0 mm
07:41 4.9 °C -1.6 °C 1019.2 hPa SW 4.8 km/h 11.1 km/h 63 % 0 mm
07:46 5.2 °C -1.5 °C 1019.5 hPa SW 2.4 km/h 5.6 km/h 62 % 0 mm
07:51 5.6 °C -1.6 °C 1019.5 hPa West 4.8 km/h 11.1 km/h 60 % 0 mm
07:56 5.9 °C -1.5 °C 1019.5 hPa West 5.1 km/h 7.4 km/h 59 % 0 mm
08:02 6.5 °C -1.7 °C 1019.5 hPa West 5.5 km/h 7.4 km/h 56 % 0 mm
08:07 7 °C -1.4 °C 1019.2 hPa SW 6.6 km/h 11.3 km/h 55 % 0 mm
08:12 7.4 °C -1 °C 1019.2 hPa WNW 5.6 km/h 9.3 km/h 55 % 0 mm
08:17 7.8 °C -1.2 °C 1019.2 hPa WSW 5.8 km/h 11.1 km/h 53 % 0 mm
08:22 8.2 °C -1.1 °C 1019.5 hPa WNW 6.1 km/h 11.1 km/h 52 % 0 mm
08:27 8.5 °C -1.1 °C 1019.5 hPa SW 6.4 km/h 8 km/h 51 % 0 mm
08:32 8.8 °C -1.1 °C 1019.5 hPa SW 9.8 km/h 11.1 km/h 50 % 0 mm
08:37 9.1 °C -1.1 °C 1019.5 hPa West 6.8 km/h 11.1 km/h 49 % 0 mm
08:42 9.3 °C -0.9 °C 1019.5 hPa SW 9 km/h 17.7 km/h 49 % 0 mm
08:47 9.4 °C -1.1 °C 1019.5 hPa West 6.4 km/h 9.3 km/h 48 % 0 mm
08:52 9.7 °C -0.6 °C 1019.5 hPa WSW 8 km/h 16.1 km/h 49 % 0 mm
08:57 9.9 °C -0.8 °C 1019.5 hPa WSW 6.4 km/h 8 km/h 47 % 0 mm
09:02 10.2 °C -0.7 °C 1019.9 hPa West 6.3 km/h 14.8 km/h 47 % 0 mm
09:07 10.5 °C -0.7 °C 1019.9 hPa West 6.8 km/h 13 km/h 46 % 0 mm
09:12 10.7 °C -1.1 °C 1019.9 hPa WSW 7.1 km/h 11.3 km/h 44 % 0 mm
09:17 10.8 °C -0.7 °C 1019.9 hPa West 6.3 km/h 14.8 km/h 45 % 0 mm
09:22 11.1 °C -0.4 °C 1020.2 hPa West 7.1 km/h 13 km/h 45 % 0 mm
09:27 11.3 °C -1.1 °C 1020.2 hPa NNW 7.1 km/h 14.8 km/h 42 % 0 mm
09:32 11.5 °C -1.3 °C 1020.2 hPa West 8.9 km/h 18.5 km/h 41 % 0 mm
09:38 11.7 °C -0.8 °C 1020.2 hPa WNW 3.4 km/h 5.6 km/h 42 % 0 mm
09:43 11.9 °C -0.6 °C 1020.2 hPa WNW 4.8 km/h 9.3 km/h 42 % 0 mm
09:48 12.2 °C -0.4 °C 1020.2 hPa WNW 9.7 km/h 14.8 km/h 42 % 0 mm
09:53 12.2 °C -0.7 °C 1020.2 hPa West 6.9 km/h 13 km/h 41 % 0 mm
09:58 12.3 °C -0.9 °C 1019.9 hPa WSW 8.5 km/h 13 km/h 40 % 0 mm
10:03 12.6 °C -0.4 °C 1020.2 hPa West 7.1 km/h 9.3 km/h 41 % 0 mm
10:08 12.8 °C 0.2 °C 1020.2 hPa SW 10.1 km/h 16.1 km/h 42 % 0 mm
10:13 12.9 °C 0.3 °C 1020.5 hPa West 5.8 km/h 9.3 km/h 42 % 0 mm
10:18 13.1 °C 0.4 °C 1020.2 hPa SW 9 km/h 11.3 km/h 42 % 0 mm
10:23 13.1 °C 0.1 °C 1020.2 hPa SW 3.2 km/h 12.9 km/h 41 % 0 mm
10:28 13.2 °C -0.4 °C 1020.2 hPa WSW 6.4 km/h 14.8 km/h 39 % 0 mm
10:33 13.3 °C -0.1 °C 1020.2 hPa SW 8 km/h 12.9 km/h 40 % 0 mm
10:38 13.3 °C -0.3 °C 1020.2 hPa WSW 6.8 km/h 8 km/h 39 % 0 mm
10:43 13.5 °C -0.2 °C 1020.2 hPa NW 6.9 km/h 13 km/h 39 % 0 mm
10:48 13.7 °C -0.3 °C 1020.2 hPa WSW 10 km/h 13 km/h 38 % 0 mm
10:53 13.9 °C 0.2 °C 1020.2 hPa WSW 5.3 km/h 11.1 km/h 39 % 0 mm
10:58 14.3 °C 0.2 °C 1020.2 hPa WSW 5.1 km/h 11.3 km/h 38 % 0 mm
11:03 14.6 °C 0.1 °C 1020.2 hPa WSW 6.8 km/h 14.8 km/h 37 % 0 mm
11:08 14.8 °C 0.3 °C 1020.2 hPa SW 5.8 km/h 11.3 km/h 37 % 0 mm
11:13 15.2 °C 0.2 °C 1020.2 hPa WNW 6.3 km/h 9.3 km/h 36 % 0 mm
11:18 15.5 °C 0.5 °C 1020.2 hPa WNW 6.9 km/h 13 km/h 36 % 0 mm
11:23 15.7 °C -0.6 °C 1020.2 hPa West 3.7 km/h 5.6 km/h 33 % 0 mm
11:28 15.8 °C -0.8 °C 1020.2 hPa WNW 6.8 km/h 9.7 km/h 32 % 0 mm
11:34 15.7 °C -1.4 °C 1020.2 hPa WNW 6.9 km/h 13 km/h 31 % 0 mm
11:39 15.7 °C -0.9 °C 1020.2 hPa WSW 6.1 km/h 9.3 km/h 32 % 0 mm
11:44 15.9 °C -1.6 °C 1020.2 hPa West 4.7 km/h 11.1 km/h 30 % 0 mm
11:49 16.2 °C -0.6 °C 1020.2 hPa West 7.2 km/h 9.7 km/h 32 % 0 mm
11:54 16.4 °C -1.2 °C 1020.2 hPa WSW 4 km/h 6.4 km/h 30 % 0 mm
11:59 16.7 °C -1 °C 1020.2 hPa SW 3.7 km/h 4.8 km/h 30 % 0 mm
12:04 16.9 °C 0.6 °C 1019.9 hPa NW 3.5 km/h 11.3 km/h 33 % 0 mm
12:09 16.9 °C -2.2 °C 1019.9 hPa WNW 6 km/h 7.4 km/h 27 % 0 mm
12:14 17 °C -2.2 °C 1019.9 hPa NW 4.8 km/h 8 km/h 27 % 0 mm
12:19 17.2 °C -2.5 °C 1019.9 hPa West 4.3 km/h 7.4 km/h 26 % 0 mm
12:24 17.3 °C -1.9 °C 1019.9 hPa WNW 4.3 km/h 9.7 km/h 27 % 0 mm
12:29 17.2 °C -3.6 °C 1019.9 hPa WNW 5.3 km/h 11.1 km/h 24 % 0 mm
12:34 17.4 °C -1.3 °C 1019.5 hPa WNW 5.6 km/h 9.7 km/h 28 % 0 mm
12:39 17.6 °C -2.7 °C 1019.9 hPa WSW 2.4 km/h 11.1 km/h 25 % 0 mm
12:44 17.9 °C -2.9 °C 1019.9 hPa West 9.3 km/h 13 km/h 24 % 0 mm
12:49 18.2 °C -2.2 °C 1019.9 hPa West 6 km/h 11.1 km/h 25 % 0 mm
12:54 18.4 °C -1.5 °C 1019.9 hPa NW 5 km/h 14.5 km/h 26 % 0 mm
12:59 18.5 °C -3.1 °C 1019.9 hPa West 10.1 km/h 14.8 km/h 23 % 0 mm
13:05 18.4 °C -3.7 °C 1019.9 hPa WSW 9.8 km/h 14.8 km/h 22 % 0 mm
13:10 18.3 °C -2.1 °C 1019.9 hPa SW 4.7 km/h 9.7 km/h 25 % 0 mm
13:13 18.4 °C -2.6 °C 1019.9 hPa West 6.9 km/h 9.3 km/h 24 % 0 mm
13:18 18.6 °C -3.6 °C 1019.9 hPa West 10.5 km/h 16.7 km/h 22 % 0 mm
13:23 18.5 °C -3.1 °C 1019.9 hPa NW 4.2 km/h 9.3 km/h 23 % 0 mm
13:28 18.6 °C -3.6 °C 1019.9 hPa West 5 km/h 16.7 km/h 22 % 0 mm
13:33 18.6 °C -2.9 °C 1019.9 hPa WSW 7.4 km/h 14.8 km/h 23 % 0 mm
13:38 18.7 °C -1.2 °C 1019.5 hPa WNW 7.6 km/h 11.1 km/h 26 % 0 mm
13:43 18.8 °C -1.2 °C 1019.5 hPa NW 6.3 km/h 16.7 km/h 26 % 0 mm
13:48 18.9 °C -1.6 °C 1019.9 hPa SW 10.8 km/h 14.8 km/h 25 % 0 mm
13:53 18.9 °C -2.1 °C 1019.9 hPa West 6 km/h 13 km/h 24 % 0 mm
13:58 18.9 °C -1.6 °C 1019.9 hPa West 10.9 km/h 18.5 km/h 25 % 0 mm
14:03 18.9 °C -0.5 °C 1019.5 hPa West 5.6 km/h 14.8 km/h 27 % 0 mm
14:08 19.1 °C -1.4 °C 1019.5 hPa WSW 7.6 km/h 12.9 km/h 25 % 0 mm
14:13 19.2 °C -0.3 °C 1019.5 hPa West 7.2 km/h 13 km/h 27 % 0 mm
14:19 19.2 °C -0.8 °C 1019.5 hPa West 7.9 km/h 13 km/h 26 % 0 mm
14:24 19.3 °C -0.2 °C 1019.2 hPa WSW 6.9 km/h 11.1 km/h 27 % 0 mm
14:29 19.2 °C -0.3 °C 1019.2 hPa WSW 11.4 km/h 20.4 km/h 27 % 0 mm
14:34 19.1 °C 0.2 °C 1019.2 hPa SW 10.8 km/h 14.8 km/h 28 % 0 mm
14:39 19.2 °C -0.3 °C 1019.2 hPa SW 5.6 km/h 14.5 km/h 27 % 0 mm
14:44 19.3 °C -0.7 °C 1019.2 hPa West 6.6 km/h 14.8 km/h 26 % 0 mm
14:49 19.4 °C -0.6 °C 1018.8 hPa WNW 5.6 km/h 11.1 km/h 26 % 0 mm
14:54 19.6 °C -0.5 °C 1018.8 hPa WSW 8.5 km/h 12.9 km/h 26 % 0 mm
14:59 19.6 °C -0.5 °C 1018.8 hPa SW 7.6 km/h 14.8 km/h 26 % 0 mm
15:05 19.3 °C -0.7 °C 1018.8 hPa West 5 km/h 13 km/h 26 % 0 mm
15:10 19.4 °C -0.1 °C 1018.8 hPa WSW 12.1 km/h 16.7 km/h 27 % 0 mm
15:15 19.4 °C 0.9 °C 1018.8 hPa WNW 3.5 km/h 8 km/h 29 % 0 mm
15:20 19.6 °C -0.4 °C 1018.8 hPa WSW 10 km/h 16.7 km/h 26 % 0 mm
15:25 19.6 °C 1.1 °C 1018.8 hPa WSW 9.8 km/h 14.5 km/h 29 % 0 mm
15:30 19.7 °C 0.6 °C 1018.8 hPa West 4.3 km/h 9.7 km/h 28 % 0 mm
15:35 19.7 °C 0.2 °C 1018.8 hPa West 6.8 km/h 11.3 km/h 27 % 0 mm
15:40 19.8 °C 0.2 °C 1018.8 hPa NW 2.3 km/h 5.6 km/h 27 % 0 mm
15:45 19.8 °C 0.3 °C 1018.8 hPa West 8.9 km/h 14.8 km/h 27 % 0 mm
15:50 19.8 °C 0.3 °C 1018.8 hPa WNW 6 km/h 8 km/h 27 % 0 mm
15:55 19.9 °C 0.8 °C 1018.8 hPa WSW 5.3 km/h 7.4 km/h 28 % 0 mm
16:00 20 °C 0.9 °C 1018.8 hPa West 4.2 km/h 9.3 km/h 28 % 0 mm
16:05 20 °C 1.4 °C 1018.8 hPa SW 1.3 km/h 9.3 km/h 29 % 0 mm
16:10 20.1 °C 1.9 °C 1018.8 hPa SSW 14 km/h 16.1 km/h 30 % 0 mm
16:11 20 °C 1.9 °C 1018.8 hPa SSW 9.5 km/h 27.8 km/h 30 % 0 mm
16:16 19.9 °C 1.8 °C 1018.8 hPa SSW 10.3 km/h 16.7 km/h 30 % 0 mm
16:21 19.8 °C 1.7 °C 1018.5 hPa SW 9 km/h 19.3 km/h 30 % 0 mm
16:26 19.6 °C 1.5 °C 1018.8 hPa SW 11.3 km/h 19.3 km/h 30 % 0 mm
16:31 19.3 °C 1.7 °C 1018.8 hPa SSW 8.9 km/h 18.5 km/h 31 % 0 mm
16:36 19 °C 1.5 °C 1018.5 hPa South 8.9 km/h 13 km/h 31 % 0 mm
16:41 18.8 °C 1.3 °C 1018.5 hPa SSW 13 km/h 24.1 km/h 31 % 0 mm
16:46 18.7 °C 1.2 °C 1018.5 hPa WSW 11.3 km/h 16.7 km/h 31 % 0 mm
16:51 18.4 °C 0.9 °C 1018.5 hPa SSW 8 km/h 13 km/h 31 % 0 mm
16:56 18.2 °C 1.2 °C 1018.5 hPa South 7.9 km/h 13 km/h 32 % 0 mm
17:01 18 °C 1.1 °C 1018.5 hPa South 9.8 km/h 18.5 km/h 32 % 0 mm
17:06 17.7 °C 1.2 °C 1018.8 hPa South 12.9 km/h 20.4 km/h 33 % 0 mm
17:11 17.3 °C 0.9 °C 1018.5 hPa SSW 10.6 km/h 18.5 km/h 33 % 0 mm
17:16 17 °C 0.6 °C 1018.8 hPa South 11.3 km/h 13 km/h 33 % 0 mm
17:21 16.7 °C 0.8 °C 1018.8 hPa SSW 13.2 km/h 20.4 km/h 34 % 0 mm
17:26 16.3 °C 0.4 °C 1018.8 hPa SSW 9.5 km/h 14.5 km/h 34 % 0 mm
17:31 16.2 °C 0.3 °C 1018.8 hPa SSE 11.7 km/h 19.3 km/h 34 % 0 mm
17:36 15.9 °C -0.4 °C 1018.8 hPa South 5.6 km/h 14.8 km/h 33 % 0 mm
17:41 15.7 °C 0.3 °C 1018.8 hPa SSE 9.5 km/h 18.5 km/h 35 % 0 mm
17:46 15.6 °C -0.3 °C 1018.8 hPa South 6.6 km/h 20.4 km/h 34 % 0 mm
17:51 15.4 °C 0 °C 1018.8 hPa SSW 11.1 km/h 16.7 km/h 35 % 0 mm
17:56 15.2 °C 0.2 °C 1018.8 hPa South 10.9 km/h 16.7 km/h 36 % 0 mm
18:01 15 °C 0.1 °C 1018.8 hPa SSW 7.6 km/h 18.5 km/h 36 % 0 mm
18:06 14.9 °C -0.1 °C 1018.8 hPa SSE 13.2 km/h 18.5 km/h 36 % 0 mm
18:11 14.8 °C -0.2 °C 1018.8 hPa SE 6.9 km/h 18.5 km/h 36 % 0 mm
18:16 14.7 °C 0.1 °C 1018.8 hPa SSW 12.2 km/h 18.5 km/h 37 % 0 mm
18:21 14.4 °C -0.4 °C 1018.8 hPa South 11.6 km/h 18.5 km/h 36 % 0 mm
18:26 14.3 °C -0.2 °C 1018.8 hPa SSE 10.1 km/h 16.7 km/h 37 % 0 mm
18:31 14.2 °C -0.3 °C 1018.8 hPa South 11.3 km/h 16.7 km/h 37 % 0 mm
18:36 14 °C -0.1 °C 1018.8 hPa South 13.2 km/h 29.6 km/h 38 % 0 mm
18:41 13.8 °C -0.3 °C 1018.8 hPa SSW 8.2 km/h 18.5 km/h 38 % 0 mm
18:46 13.6 °C -0.2 °C 1018.5 hPa South 12.2 km/h 24.1 km/h 39 % 0 mm
18:51 13.3 °C 0 °C 1018.5 hPa South 9.2 km/h 20.4 km/h 40 % 0 mm
18:56 13.1 °C -0.2 °C 1018.5 hPa SSW 7.2 km/h 22.2 km/h 40 % 0 mm
19:02 12.9 °C 0 °C 1018.8 hPa South 8.9 km/h 14.8 km/h 41 % 0 mm
19:07 12.7 °C -0.2 °C 1018.5 hPa SE 11.6 km/h 18.5 km/h 41 % 0 mm
19:12 12.4 °C -0.4 °C 1018.5 hPa SSW 10.6 km/h 18.5 km/h 41 % 0 mm
19:17 12.2 °C -0.4 °C 1018.5 hPa South 11.4 km/h 20.4 km/h 42 % 0 mm
19:22 11.9 °C -0.6 °C 1018.5 hPa SSW 11.1 km/h 20.4 km/h 42 % 0 mm
19:27 11.7 °C -0.5 °C 1018.5 hPa SW 9 km/h 16.7 km/h 43 % 0 mm
19:32 11.4 °C -0.4 °C 1018.8 hPa SSW 9.8 km/h 16.7 km/h 44 % 0 mm
19:37 11.3 °C -0.5 °C 1018.8 hPa South 9 km/h 18.5 km/h 44 % 0 mm
19:42 11.1 °C -0.4 °C 1018.8 hPa South 12.4 km/h 18.5 km/h 45 % 0 mm
19:47 11 °C -0.5 °C 1018.8 hPa South 9.3 km/h 13 km/h 45 % 0 mm
19:52 10.8 °C -0.1 °C 1018.8 hPa SSW 10 km/h 18.5 km/h 47 % 0 mm
19:57 10.7 °C -0.2 °C 1018.8 hPa South 11.9 km/h 24.1 km/h 47 % 0 mm
20:02 10.6 °C 0.1 °C 1018.8 hPa SSW 9.8 km/h 14.8 km/h 48 % 0 mm
20:07 10.6 °C 0 °C 1019.2 hPa South 9.7 km/h 19.3 km/h 48 % 0 mm
20:12 10.5 °C 0.2 °C 1019.2 hPa South 11.3 km/h 19.3 km/h 49 % 0 mm
20:17 10.4 °C 0.4 °C 1019.2 hPa South 11.3 km/h 16.1 km/h 50 % 0 mm
20:22 10.3 °C 0.6 °C 1019.2 hPa SSW 12.2 km/h 16.7 km/h 51 % 0 mm
20:27 10.3 °C 0.8 °C 1019.2 hPa South 8.7 km/h 11.1 km/h 52 % 0 mm
20:32 10.3 °C 1.1 °C 1019.5 hPa South 12.9 km/h 20.9 km/h 53 % 0 mm
20:37 10.2 °C 1.1 °C 1019.5 hPa South 11.3 km/h 19.3 km/h 53 % 0 mm
20:42 10.2 °C 1 °C 1019.5 hPa South 8 km/h 19.3 km/h 53 % 0 mm
20:47 10.2 °C 1.3 °C 1019.9 hPa SSW 11.3 km/h 22.5 km/h 54 % 0 mm
20:52 10.1 °C 1.5 °C 1019.9 hPa South 11.3 km/h 19.3 km/h 55 % 0 mm
20:57 10.1 °C 1.4 °C 1019.9 hPa South 9.3 km/h 14.8 km/h 55 % 0 mm
21:02 10.1 °C 1.7 °C 1019.9 hPa SSW 10.6 km/h 16.7 km/h 56 % 0 mm
21:07 10.1 °C 1.7 °C 1019.9 hPa SSW 9.3 km/h 20.4 km/h 56 % 0 mm
21:12 10.1 °C 1.7 °C 1019.9 hPa South 6.1 km/h 13 km/h 56 % 0 mm
21:17 10.1 °C 1.9 °C 1019.9 hPa SSW 7.9 km/h 16.7 km/h 57 % 0 mm
21:22 10.1 °C 1.9 °C 1019.9 hPa South 8 km/h 19.3 km/h 57 % 0 mm
21:27 10 °C 2.1 °C 1019.9 hPa South 8 km/h 12.9 km/h 58 % 0 mm
21:32 10 °C 2.1 °C 1020.2 hPa South 3.2 km/h 11.3 km/h 58 % 0 mm
21:37 9.9 °C 2.3 °C 1020.2 hPa SSW 3.2 km/h 11.3 km/h 59 % 0 mm
21:42 9.9 °C 2.1 °C 1020.2 hPa SW 4.8 km/h 9.7 km/h 58 % 0 mm
21:47 9.9 °C 2.3 °C 1020.2 hPa WSW 4.8 km/h 11.3 km/h 59 % 0 mm
21:52 9.9 °C 2.1 °C 1020.5 hPa Calm   4.8 km/h 58 % 0 mm
21:57 9.9 °C 2.3 °C 1020.5 hPa WSW 1.1 km/h 5.6 km/h 59 % 0 mm
22:02 9.9 °C 2.3 °C 1020.5 hPa Calm   1.9 km/h 59 % 0 mm
22:07 9.9 °C 2.2 °C 1020.5 hPa WSW 0.5 km/h 1.9 km/h 59 % 0 mm
22:12 9.9 °C 2.2 °C 1020.5 hPa WSW 1.3 km/h 1.9 km/h 59 % 0 mm
22:17 9.8 °C 2.2 °C 1020.5 hPa WSW 2.6 km/h 3.2 km/h 59 % 0 mm
22:22 9.8 °C 2.4 °C 1020.5 hPa SSW 0.8 km/h 1.9 km/h 60 % 0 mm
22:27 9.7 °C 2.3 °C 1020.5 hPa SSW 3.7 km/h 6.4 km/h 60 % 0 mm
22:32 9.7 °C 2.5 °C 1020.5 hPa SSW 1.3 km/h 5.6 km/h 61 % 0 mm
22:37 9.6 °C 2.4 °C 1020.5 hPa SW 1.8 km/h 5.6 km/h 61 % 0 mm
22:42 9.6 °C 2.6 °C 1020.5 hPa WSW 2.1 km/h 12.9 km/h 62 % 0 mm
22:47 9.6 °C 2.6 °C 1020.5 hPa WSW 2.7 km/h 6.4 km/h 62 % 0 mm
22:52 9.6 °C 2.7 °C 1020.5 hPa WSW 1.3 km/h 5.6 km/h 62 % 0 mm
22:57 9.6 °C 2.7 °C 1020.5 hPa WSW 1.4 km/h 5.6 km/h 62 % 0 mm
23:02 9.7 °C 2.7 °C 1020.5 hPa SW 3.9 km/h 8 km/h 62 % 0 mm
23:07 9.7 °C 2.8 °C 1020.5 hPa WSW 2.7 km/h 5.6 km/h 62 % 0 mm
23:13 9.7 °C 2.6 °C 1020.5 hPa West 3.7 km/h 5.6 km/h 61 % 0 mm
23:18 9.7 °C 2.8 °C 1020.5 hPa WSW 0.8 km/h 3.7 km/h 62 % 0 mm
23:23 9.7 °C 2.8 °C 1020.5 hPa WSW 4.3 km/h 5.6 km/h 62 % 0 mm
23:28 9.7 °C 2.6 °C 1020.5 hPa SW 4 km/h 9.3 km/h 61 % 0 mm
23:33 9.8 °C 2.6 °C 1020.5 hPa SW 4.2 km/h 6.4 km/h 61 % 0 mm
23:38 9.8 °C 2.4 °C 1020.2 hPa WSW 8.2 km/h 13 km/h 60 % 0 mm
23:43 9.9 °C 2.2 °C 1020.5 hPa SSW 6.1 km/h 14.8 km/h 59 % 0 mm
23:48 10 °C 2.1 °C 1020.2 hPa WSW 7.6 km/h 11.3 km/h 58 % 0 mm
23:53 10.1 °C 2.2 °C 1020.2 hPa SW 9 km/h 18.5 km/h 58 % 0 mm
23:58 10.2 °C 2 °C 1020.5 hPa SW 7.2 km/h 11.3 km/h 57 % 0 mm
Crab Meadow Weather
Compliments of Weather Underground - 3 mb

Script developed by  Jim McMurry - jmcmurry@mwt.net Adapted for the template by  Wim van der Kuil - Leuven-Template.eu

Lightning: Lightning is equivalent to the electric power of 100 million light bulbs in your face.